Voltar ao catálogo

COSMOS 1199

AtivoNavegaçãoLEO
NORAD 11882·PAYLOAD·🇷🇺 Russia

Lançado Jul 9, 1980 de Plesetsk Cosmodrome

Loading…

Próximas Passagens (próximas 24 horas)

TLE

AtualizadoSource: Space-Track

Época: Sep 14, 2026, 14:04 UTC

1 11882U 80058H   26257.58644905 -.00000015  00000-0  16537-5 0  9998
2 11882  74.0181 204.2460 0036508 183.6141 350.0033 12.41207385 92522

Acompanhe COSMOS 1199 em tempo real com AllMySat

Download on the App Store